Theta_e
297 296 297 297 296 295 294 294 293 292 292 292 292 292 292 292 292 293 293 292 293 293
294 293 293 293 293 292 292 291 291 291 291 291 291 291 290 290 290 291 291 291 292 291
292 292 291 291 290 290 290 290 289 289 290 289 289 289 289 289 290 289 290 290 289 289
290 290 290 290 290 290 290 289 288 288 288 288 288 288 287 287 287 286 287 288 288 288
290 289 288 288 289 289 288 289 288 288 287 287 287 287 286 286 286 285 285 286 286 285
288 288 287 288 288 288 288 288 288 287 286 286 287 286 286 286 285 285 285 285 285 284
288 287 287 288 288 287 287 286 286 286 286 286 286 285 285 285 285 284 285 285 285 285
286 287 287 287 286 286 286 285 286 285 285 285 285 284 284 284 284 284 284 285 285 285
284 284 284 285 284 285 285 285 284 284 284 283 283 284 285 284 283 283 283 283 284 284
282 282 283 283 282 282 282 283 283 283 283 282 283 284 284 284 283 282 283 283 283 283
280 280 281 281 280 281 282 281 282 282 282 282 282 284 284 283 282 282 282 282 282 282
280 280 280 280 280 280 281 281 282 282 282 281 281 283 283 283 282 281 281 282 282 282
281 281 280 280 280 281 282 281 282 281 282 281 280 282 282 282 281 279 280 280 281 281
282 282 282 281 281 281 280 281 280 280 280 280 280 279 281 282 280 279 279 280 279 280
Wind_Speed
9 7 7 7 6 5 5 5 3 4 4 5 4 5 5 4 4 5 4 7 6 6
10 9 8 8 7 5 5 5 5 5 5 5 5 5 5 5 5 5 5 6 6 6
10 9 8 7 8 8 7 6 6 6 6 6 5 5 5 5 5 6 5 5 7 6
11 9 9 8 9 8 7 7 7 7 7 6 6 6 6 6 6 7 6 6 7 8
12 10 10 10 9 8 8 8 8 7 7 7 7 6 6 7 6 7 7 7 7 8
13 12 11 11 10 9 9 9 8 8 8 8 7 7 7 7 7 8 8 8 8 9
14 13 12 11 10 9 9 8 7 7 7 7 7 7 7 7 7 7 7 7 8 9
13 11 10 11 9 7 6 7 7 7 7 7 7 6 6 6 7 8 8 8 9 9
13 10 10 8 7 7 8 6 7 8 7 7 5 11 12 10 8 8 8 9 10 10
12 12 9 8 7 9 8 7 9 8 8 8 8 14 15 15 8 8 9 10 10 9
11 10 9 8 10 10 8 10 9 9 9 8 7 15 16 15 9 9 11 11 11 10
10 9 11 12 11 9 8 10 9 7 7 9 9 15 16 13 8 9 10 9 9 9
11 13 12 12 12 9 9 8 5 7 8 9 10 15 16 13 6 9 7 7 8 13
16 15 14 11 10 8 6 6 6 7 7 9 10 10 16 16 8 7 7 7 7 7
Wind_Direction
278 275 272 268 261 255 251 244 230 240 252 259 268 270 268 270 266 275 274 273 269 273
267 261 261 255 250 248 242 242 243 248 256 255 257 265 274 270 273 274 275 272 278 272
256 253 258 259 251 248 246 240 243 244 247 253 255 257 262 271 271 270 274 270 270 271
252 248 245 242 243 240 242 238 239 243 249 252 253 253 255 261 267 266 271 277 272 275
251 243 235 238 238 234 234 235 239 244 245 249 249 250 253 260 269 269 273 276 274 271
253 245 241 237 236 230 233 237 238 238 246 250 251 253 253 254 257 262 267 272 274 276
264 254 244 242 236 229 227 232 231 234 241 245 251 254 258 262 264 269 270 268 269 273
267 271 271 255 245 243 242 236 235 244 247 253 255 257 264 273 277 273 269 266 267 268
266 249 242 263 268 257 247 247 246 246 248 253 256 265 268 267 267 271 271 269 269 269
264 256 240 238 233 243 242 255 249 243 242 244 243 256 265 267 262 260 259 259 261 267
280 268 267 241 239 240 230 236 240 241 238 242 244 257 263 266 261 256 254 256 260 262
283 262 264 257 247 236 227 232 229 229 231 237 246 253 265 269 262 258 258 258 259 259
292 274 264 257 256 236 220 228 228 239 237 242 252 254 264 267 259 262 263 258 257 259
299 280 274 262 250 234 225 228 230 242 249 248 244 255 261 264 258 258 264 263 269 262